User: anonymous   Login
Location: *
(44.1392°N, 4.8079°E)
Time: 19:35:30
(UTC+00:00)
Language:

Cosmos 1633 - Orbit

View from above orbital plane
View from above orbital plane
View from above satellite
View from above satellite

Ground track
Ground track

The orbit data is extracted from the following two-line orbital elements,

1 15592U 85020A   21261.53495126  .00002407  00000-0  75138-4 0  9995
2 15592  82.5398 197.2943 0014219  66.9567 293.3173 15.32576843  1755
Epoch (UTC): 18 September 2021 12:50:19
Eccentricity: 0.0014219
inclination: 82.5398°
perigee height: 458 km
apogee height: 478 km
right ascension of ascending node: 197.2943°
argument of perigee: 66.9567°
revolutions per day: 15.32576843
mean anomaly at epoch: 293.3173°
orbit number at epoch: 175

The dashed part of the orbit path shows where the satellite is in the earth's shadow,  

DLR